QPF
0.00 0.00 0.00 0.00 0.00 0.00 0.00 0.00 0.00 0.00 0.00 0.00 0.00 0.00 0.00 0.00 0.00 0.00 0.00 0.01 0.03 0.04 0.06 0.03 0.00 0.01 0.01 0.00 0.00 0.00 0.00 0.00 0.00 0.01 0.00 0.00 0.00 0.00 0.00 0.00 0.00 0.00 0.00 0.00
0.00 0.00 0.00 0.00 0.00 0.00 0.00 0.00 0.00 0.00 0.00 0.00 0.00 0.00 0.00 0.00 0.00 0.00 0.00 0.00 0.01 0.11 0.27 0.17 0.04 0.01 0.00 0.00 0.00 0.00 0.00 0.00 0.00 0.00 0.00 0.01 0.01 0.01 0.00 0.00 0.00 0.00 0.00 0.00
0.00 0.00 0.01 0.00 0.00 0.00 0.00 0.00 0.00 0.00 0.00 0.00 0.00 0.00 0.00 0.00 0.00 0.00 0.00 0.00 0.02 0.10 0.15 0.08 0.00 0.00 0.00 0.00 0.00 0.00 0.00 0.00 0.00 0.00 0.02 0.00 0.00 0.00 0.00 0.00 0.00 0.00 0.00 0.00
0.00 0.00 0.00 0.00 0.00 0.00 0.00 0.00 0.00 0.00 0.00 0.00 0.00 0.00 0.00 0.00 0.00 0.00 0.00 0.00 0.02 0.06 0.17 0.11 0.03 0.02 0.00 0.00 0.00 0.00 0.00 0.00 0.02 0.02 0.00 0.00 0.00 0.00 0.00 0.00 0.00 0.00 0.00 0.00
0.00 0.00 0.00 0.00 0.00 0.00 0.00 0.00 0.00 0.00 0.00 0.00 0.00 0.00 0.00 0.00 0.00 0.00 0.00 0.00 0.00 0.04 0.15 0.16 0.15 0.03 0.00 0.00 0.00 0.00 0.00 0.00 0.02 0.03 0.00 0.00 0.00 0.00 0.00 0.00 0.00 0.00 0.00 0.00
0.00 0.00 0.00 0.00 0.00 0.00 0.00 0.00 0.00 0.00 0.00 0.00 0.00 0.00 0.00 0.00 0.00 0.00 0.01 0.00 0.01 0.01 0.08 0.14 0.22 0.13 0.00 0.00 0.00 0.00 0.01 0.01 0.01 0.00 0.00 0.00 0.00 0.00 0.00 0.00 0.00 0.00 0.00 0.00
0.00 0.00 0.00 0.00 0.00 0.00 0.00 0.00 0.00 0.00 0.00 0.00 0.00 0.00 0.00 0.00 0.00 0.00 0.01 0.00 0.03 0.03 0.08 0.21 0.31 0.02 0.00 0.00 0.00 0.01 0.00 0.00 0.00 0.00 0.00 0.00 0.00 0.00 0.00 0.00 0.00 0.00 0.00 0.00
0.00 0.00 0.00 0.00 0.00 0.00 0.00 0.00 0.00 0.00 0.00 0.00 0.00 0.00 0.01 0.01 0.01 0.02 0.02 0.09 0.10 0.10 0.08 0.08 0.15 0.06 0.02 0.01 0.04 0.01 0.00 0.00 0.00 0.00 0.00 0.00 0.00 0.00 0.00 0.00 0.00 0.00 0.00 0.00
0.00 0.00 0.00 0.00 0.00 0.00 0.00 0.00 0.00 0.00 0.00 0.00 0.00 0.00 0.01 0.01 0.00 0.00 0.01 0.08 0.17 0.09 0.12 0.14 0.06 0.04 0.08 0.09 0.06 0.00 0.00 0.00 0.00 0.00 0.00 0.00 0.00 0.00 0.00 0.00 0.00 0.00 0.00 0.00
0.00 0.00 0.00 0.00 0.00 0.00 0.00 0.00 0.00 0.00 0.00 0.00 0.00 0.00 0.00 0.00 0.00 0.00 0.00 0.01 0.03 0.08 0.18 0.17 0.07 0.05 0.03 0.04 0.01 0.00 0.00 0.00 0.00 0.00 0.00 0.00 0.00 0.00 0.00 0.00 0.00 0.00 0.00 0.00
0.00 0.00 0.00 0.01 0.00 0.00 0.00 0.00 0.00 0.00 0.00 0.02 0.01 0.00 0.00 0.01 0.00 0.00 0.00 0.00 0.02 0.03 0.05 0.07 0.06 0.04 0.00 0.00 0.00 0.00 0.00 0.00 0.00 0.00 0.00 0.00 0.00 0.00 0.00 0.00 0.00 0.00 0.00 0.00
0.00 0.00 0.00 0.00 0.00 0.00 0.00 0.00 0.00 0.00 0.00 0.00 0.01 0.02 0.01 0.00 0.00 0.00 0.00 0.03 0.04 0.02 0.02 0.03 0.01 0.00 0.00 0.00 0.00 0.00 0.00 0.00 0.00 0.00 0.00 0.00 0.00 0.00 0.00 0.00 0.00 0.00 0.00 0.00
0.00 0.00 0.00 0.00 0.00 0.00 0.00 0.00 0.00 0.00 0.00 0.00 0.02 0.02 0.00 0.00 0.01 0.00 0.00 0.00 0.01 0.00 0.00 0.00 0.00 0.00 0.00 0.00 0.00 0.00 0.00 0.00 0.00 0.00 0.00 0.00 0.00 0.00 0.00 0.00 0.00 0.00 0.00 0.00
0.00 0.00 0.00 0.00 0.00 0.00 0.00 0.00 0.00 0.00 0.00 0.00 0.00 0.00 0.00 0.00 0.01 0.01 0.00 0.00 0.00 0.01 0.00 0.00 0.00 0.00 0.00 0.00 0.00 0.00 0.00 0.00 0.00 0.00 0.00 0.00 0.00 0.00 0.00 0.00 0.00 0.00 0.00 0.00
0.00 0.00 0.00 0.00 0.00 0.00 0.00 0.00 0.00 0.00 0.00 0.00 0.00 0.00 0.00 0.00 0.01 0.00 0.00 0.00 0.00 0.00 0.00 0.00 0.00 0.00 0.00 0.00 0.00 0.00 0.00 0.00 0.00 0.00 0.00 0.00 0.00 0.00 0.00 0.00 0.00 0.00 0.00 0.00
0.00 0.00 0.00 0.00 0.00 0.00 0.00 0.00 0.00 0.00 0.00 0.00 0.00 0.00 0.00 0.00 0.00 0.00 0.00 0.00 0.00 0.00 0.00 0.00 0.00 0.00 0.00 0.00 0.00 0.00 0.00 0.00 0.00 0.00 0.00 0.00 0.00 0.00 0.00 0.00 0.00 0.00 0.00 0.00
0.00 0.00 0.00 0.00 0.00 0.00 0.00 0.00 0.00 0.00 0.00 0.00 0.00 0.00 0.00 0.00 0.00 0.00 0.00 0.00 0.00 0.00 0.00 0.00 0.00 0.01 0.01 0.01 0.01 0.00 0.00 0.00 0.00 0.00 0.00 0.00 0.00 0.00 0.00 0.00 0.00 0.00 0.00 0.00
0.00 0.00 0.00 0.00 0.00 0.00 0.00 0.00 0.01 0.00 0.00 0.00 0.00 0.00 0.00 0.00 0.00 0.00 0.00 0.00 0.00 0.00 0.00 0.00 0.00 0.00 0.00 0.00 0.00 0.00 0.00 0.00 0.00 0.00 0.00 0.00 0.00 0.00 0.00 0.00 0.00 0.00 0.00 0.00
0.00 0.00 0.00 0.00 0.00 0.00 0.00 0.00 0.00 0.00 0.00 0.00 0.00 0.00 0.00 0.00 0.00 0.00 0.00 0.00 0.00 0.00 0.00 0.00 0.00 0.00 0.00 0.00 0.00 0.00 0.00 0.00 0.00 0.00 0.00 0.00 0.00 0.00 0.00 0.00 0.00 0.00 0.00 0.00
0.00 0.00 0.00 0.00 0.00 0.00 0.00 0.00 0.00 0.00 0.00 0.00 0.00 0.00 0.00 0.00 0.00 0.00 0.00 0.00 0.00 0.00 0.00 0.00 0.00 0.00 0.00 0.00 0.00 0.00 0.00 0.00 0.00 0.00 0.00 0.00 0.00 0.00 0.00 0.00 0.00 0.00 0.00 0.00
0.00 0.01 0.02 0.03 0.03 0.00 0.00 0.00 0.00 0.00 0.00 0.00 0.00 0.00 0.00 0.00 0.00 0.00 0.00 0.00 0.00 0.00 0.00 0.00 0.00 0.00 0.00 0.00 0.00 0.00 0.00 0.00 0.00 0.00 0.00 0.00 0.00 0.00 0.00 0.00 0.00 0.00 0.00 0.00
0.03 0.04 0.03 0.05 0.05 0.03 0.01 0.01 0.01 0.00 0.00 0.00 0.00 0.00 0.00 0.00 0.00 0.00 0.00 0.00 0.00 0.00 0.00 0.00 0.00 0.00 0.00 0.00 0.00 0.00 0.00 0.00 0.00 0.00 0.00 0.00 0.00 0.00 0.00 0.00 0.00 0.00 0.00 0.00
0.01 0.01 0.03 0.05 0.03 0.03 0.04 0.05 0.04 0.02 0.00 0.00 0.00 0.00 0.00 0.00 0.00 0.00 0.00 0.00 0.00 0.00 0.00 0.00 0.00 0.00 0.00 0.00 0.00 0.00 0.00 0.00 0.00 0.00 0.00 0.00 0.00 0.00 0.00 0.00 0.00 0.00 0.00 0.00
0.02 0.02 0.04 0.04 0.01 0.00 0.03 0.06 0.05 0.07 0.02 0.00 0.00 0.00 0.00 0.00 0.00 0.00 0.00 0.00 0.00 0.00 0.00 0.00 0.00 0.00 0.00 0.00 0.00 0.00 0.00 0.00 0.00 0.00 0.00 0.00 0.00 0.00 0.00 0.00 0.00 0.00 0.00 0.00
0.01 0.02 0.04 0.01 0.00 0.00 0.00 0.00 0.00 0.02 0.01 0.01 0.00 0.00 0.00 0.01 0.02 0.00 0.00 0.00 0.00 0.00 0.00 0.00 0.00 0.00 0.00 0.00 0.00 0.00 0.00 0.00 0.00 0.00 0.00 0.00 0.00 0.00 0.00 0.00 0.00 0.00 0.00 0.00
0.03 0.03 0.05 0.01 0.00 0.00 0.00 0.00 0.00 0.00 0.00 0.00 0.00 0.01 0.02 0.03 0.01 0.00 0.00 0.00 0.00 0.00 0.00 0.00 0.00 0.00 0.00 0.00 0.00 0.00 0.00 0.00 0.00 0.00 0.00 0.00 0.00 0.00 0.00 0.00 0.00 0.00 0.00 0.00
MSLP
1006.09 1006.77 1007.44 1007.13 1007.62 1007.44 1007.58 1007.60 1007.30 1006.24 1006.03 1006.26 1006.85 1006.24 1005.88 1005.48 1006.54 1007.96 1008.89 1009.34 1009.55 1009.18 1009.72 1009.34 1010.33 1011.05 1012.00 1012.59 1012.96 1013.10 1013.60 1014.15 1014.45 1014.98 1015.37 1015.84 1016.29 1016.50 1016.76 1016.96 1017.10 1017.34 1017.49 1017.76
1006.39 1006.42 1006.68 1006.53 1006.90 1007.25 1006.66 1006.71 1006.07 1005.46 1005.14 1006.00 1005.66 1005.71 1004.79 1005.92 1007.11 1007.85 1008.69 1009.75 1010.35 1012.18 1010.35 1010.06 1010.40 1011.23 1012.15 1012.88 1013.06 1013.53 1013.76 1014.23 1014.56 1014.76 1015.20 1015.49 1015.88 1016.36 1016.65 1016.88 1017.05 1017.23 1017.45 1017.90
1005.80 1005.36 1006.04 1005.72 1005.88 1005.96 1005.65 1005.47 1005.51 1004.71 1004.22 1004.27 1005.00 1005.90 1006.56 1007.26 1007.67 1008.83 1009.51 1009.68 1009.34 1008.99 1010.39 1012.51 1011.39 1011.76 1012.67 1013.49 1013.36 1013.91 1013.98 1014.33 1014.46 1014.75 1015.34 1015.74 1016.00 1016.50 1016.96 1017.10 1017.19 1017.36 1017.55 1018.09
1004.91 1003.97 1004.76 1004.77 1005.07 1004.70 1004.57 1004.04 1004.12 1004.50 1004.90 1005.25 1005.11 1006.45 1006.93 1007.36 1007.92 1008.55 1009.22 1009.66 1008.97 1008.34 1010.04 1011.43 1010.99 1011.81 1012.48 1013.25 1013.34 1014.02 1014.07 1014.26 1014.76 1014.96 1015.53 1016.08 1016.34 1016.73 1016.90 1017.03 1017.13 1017.22 1017.39 1018.04
1004.58 1004.03 1004.02 1004.25 1003.78 1003.39 1003.69 1003.51 1004.19 1004.69 1005.24 1005.75 1005.98 1007.08 1007.35 1007.27 1008.50 1009.00 1008.80 1010.32 1010.53 1009.82 1009.71 1011.14 1011.67 1012.25 1012.11 1013.11 1013.52 1014.31 1014.20 1014.40 1014.89 1015.12 1015.72 1016.23 1016.43 1016.62 1016.74 1017.05 1017.49 1017.35 1017.65 1018.14
1004.09 1003.35 1003.20 1002.80 1002.77 1003.00 1003.36 1003.90 1004.51 1005.07 1005.92 1006.86 1006.99 1007.97 1009.30 1009.57 1009.79 1010.03 1009.47 1010.57 1011.72 1011.50 1010.59 1010.79 1012.48 1012.45 1012.79 1013.47 1014.16 1014.66 1014.34 1014.46 1014.98 1015.41 1016.11 1016.63 1016.99 1017.18 1017.54 1017.95 1018.20 1018.16 1018.24 1018.47
1004.12 1003.72 1002.93 1002.91 1002.98 1003.32 1004.21 1005.14 1006.10 1006.87 1007.35 1007.95 1007.74 1008.72 1011.57 1011.00 1010.82 1010.68 1010.45 1010.13 1009.92 1011.10 1011.28 1012.25 1012.82 1012.41 1013.26 1014.35 1014.62 1015.01 1014.61 1014.58 1014.99 1015.70 1016.36 1016.86 1017.28 1017.57 1017.98 1018.26 1018.34 1018.46 1018.54 1018.66
1004.83 1004.10 1003.30 1003.49 1003.96 1004.54 1005.05 1005.62 1007.15 1007.73 1008.51 1008.75 1008.75 1010.26 1010.90 1010.76 1010.21 1010.99 1011.29 1010.99 1011.55 1012.34 1012.18 1012.52 1011.76 1012.25 1012.97 1014.39 1014.75 1014.81 1014.35 1014.53 1015.28 1015.59 1016.23 1016.78 1017.39 1017.77 1017.98 1018.11 1018.28 1018.43 1018.70 1018.76
1005.34 1004.50 1004.14 1004.09 1004.29 1004.76 1004.85 1005.46 1005.97 1007.47 1008.42 1009.33 1010.05 1011.55 1011.51 1011.12 1010.98 1011.75 1011.70 1012.31 1012.25 1013.22 1013.53 1012.49 1011.01 1011.47 1012.83 1014.04 1014.52 1014.61 1014.20 1014.52 1015.31 1015.75 1015.91 1016.54 1016.99 1017.37 1017.75 1018.04 1018.22 1018.33 1018.20 1018.14
1005.55 1005.21 1004.60 1004.19 1003.90 1003.79 1004.50 1005.26 1006.17 1007.68 1009.53 1010.39 1010.72 1011.38 1012.10 1011.57 1011.84 1012.11 1012.15 1013.00 1013.53 1012.58 1011.84 1011.32 1011.32 1010.96 1012.01 1013.47 1014.16 1014.19 1014.28 1014.65 1014.48 1015.48 1015.70 1016.22 1016.64 1016.96 1017.19 1017.63 1017.97 1018.13 1018.11 1017.94
1006.40 1006.26 1006.13 1005.53 1005.23 1004.96 1004.85 1005.26 1006.39 1008.09 1009.42 1010.87 1011.31 1012.23 1012.25 1012.04 1012.20 1012.35 1013.30 1013.40 1013.26 1012.43 1012.00 1012.20 1013.21 1011.75 1011.91 1012.65 1013.65 1013.71 1014.01 1014.24 1014.41 1015.23 1015.67 1015.89 1016.41 1016.92 1017.17 1017.44 1017.63 1017.85 1017.93 1017.82
1006.54 1006.88 1007.15 1006.67 1005.28 1004.87 1004.82 1005.42 1006.28 1008.24 1009.49 1010.44 1011.20 1012.63 1012.58 1012.08 1012.30 1013.09 1013.63 1014.03 1014.05 1013.53 1012.17 1013.30 1014.42 1013.91 1012.81 1013.09 1013.17 1013.31 1013.93 1014.15 1013.92 1015.02 1015.31 1015.77 1016.30 1016.71 1017.03 1017.26 1017.45 1017.57 1017.58 1017.45
1007.15 1007.70 1008.15 1007.13 1006.05 1004.94 1005.18 1005.39 1005.90 1007.11 1008.59 1010.23 1011.60 1012.38 1012.34 1012.27 1012.70 1013.08 1013.83 1014.87 1014.94 1014.56 1014.55 1013.96 1013.59 1013.77 1013.24 1013.36 1013.28 1013.41 1013.80 1013.80 1013.88 1014.90 1015.42 1015.97 1016.21 1016.63 1016.74 1016.95 1017.12 1017.31 1017.31 1017.21
1007.66 1008.30 1008.63 1008.35 1007.53 1006.67 1005.91 1005.58 1005.97 1007.08 1008.82 1010.13 1011.08 1012.01 1012.57 1012.97 1013.36 1013.48 1014.16 1014.92 1015.08 1015.13 1014.49 1013.87 1013.73 1013.54 1013.54 1013.68 1013.08 1013.28 1013.27 1013.48 1014.07 1014.87 1015.54 1015.90 1015.97 1016.21 1016.49 1016.55 1016.76 1016.88 1016.79 1016.67
1007.67 1008.50 1008.57 1008.33 1007.39 1006.51 1005.91 1005.61 1006.01 1006.95 1008.23 1009.66 1010.82 1011.94 1012.89 1013.20 1013.35 1013.53 1013.98 1014.38 1014.63 1014.79 1014.58 1014.50 1014.42 1014.24 1013.89 1014.03 1014.20 1013.40 1013.31 1013.81 1014.48 1015.07 1015.51 1015.59 1015.57 1015.71 1015.95 1016.06 1016.18 1016.19 1016.12 1015.92
1007.79 1007.90 1008.25 1008.35 1007.65 1006.51 1005.74 1004.98 1005.77 1006.72 1007.84 1009.28 1010.47 1011.92 1012.58 1013.00 1013.19 1013.53 1013.86 1013.97 1014.23 1014.30 1014.25 1013.97 1014.32 1014.75 1015.13 1014.98 1014.15 1014.28 1013.98 1014.29 1014.52 1014.99 1015.18 1015.07 1015.17 1015.44 1015.57 1015.71 1015.82 1015.81 1015.72 1015.60
1007.90 1008.07 1008.53 1008.62 1008.00 1007.04 1006.15 1005.12 1005.54 1006.48 1007.76 1008.82 1010.24 1011.55 1012.34 1013.05 1013.36 1013.52 1013.57 1013.71 1013.88 1013.90 1014.00 1014.33 1014.56 1014.73 1014.89 1014.71 1014.89 1014.83 1014.22 1014.36 1014.68 1014.96 1015.18 1015.35 1015.45 1015.75 1015.79 1015.73 1015.88 1015.92 1015.81 1015.58
1007.78 1008.41 1008.91 1009.07 1008.78 1007.74 1006.11 1005.61 1005.87 1006.85 1008.18 1009.11 1010.26 1011.21 1012.02 1012.78 1013.06 1013.09 1013.08 1013.51 1013.83 1013.98 1014.26 1014.38 1014.57 1014.93 1015.08 1015.09 1015.22 1015.17 1015.22 1015.46 1015.59 1016.04 1016.17 1016.14 1016.11 1016.41 1016.57 1016.54 1016.48 1016.30 1016.08 1015.92
1007.24 1008.45 1009.44 1009.41 1008.78 1007.56 1006.66 1006.17 1006.27 1006.96 1008.10 1008.65 1009.85 1010.93 1011.77 1012.47 1012.99 1013.16 1012.79 1012.89 1012.89 1013.16 1013.29 1014.39 1014.95 1015.31 1015.33 1015.56 1015.87 1015.97 1016.14 1016.51 1016.63 1016.82 1016.73 1016.65 1016.58 1016.83 1016.89 1016.88 1016.85 1016.61 1016.49 1016.22
1007.59 1008.26 1009.68 1009.60 1009.35 1008.15 1006.41 1005.78 1005.97 1006.77 1007.91 1008.13 1009.03 1009.96 1010.74 1011.54 1012.58 1012.12 1011.91 1012.60 1013.09 1013.33 1014.05 1014.94 1015.62 1015.72 1015.94 1016.34 1016.33 1016.54 1017.12 1017.41 1017.58 1017.59 1017.39 1017.30 1017.38 1017.39 1017.37 1017.34 1017.16 1016.75 1016.45 1016.14
1008.33 1009.18 1009.47 1009.70 1009.56 1008.51 1008.28 1006.43 1006.12 1007.33 1008.34 1007.92 1008.34 1008.93 1009.60 1010.53 1010.65 1011.07 1011.70 1012.53 1013.16 1013.95 1014.61 1015.31 1015.86 1016.43 1016.73 1016.77 1017.02 1017.74 1018.23 1018.49 1018.41 1018.02 1017.85 1017.88 1017.80 1017.73 1017.79 1017.60 1017.26 1016.90 1016.62 1016.20
1007.83 1008.60 1009.30 1009.59 1009.80 1010.05 1009.60 1009.46 1009.63 1007.82 1007.36 1007.59 1007.80 1007.91 1008.44 1009.17 1010.36 1011.04 1011.88 1012.84 1013.58 1014.33 1015.06 1015.62 1016.30 1016.98 1017.38 1017.69 1017.96 1018.63 1019.02 1019.07 1018.81 1018.59 1018.51 1018.45 1018.24 1018.08 1017.83 1017.65 1017.30 1016.97 1016.81 1016.75
1008.08 1008.65 1009.44 1009.86 1009.99 1010.38 1010.15 1010.67 1010.27 1009.17 1008.38 1008.41 1008.31 1007.40 1007.80 1008.77 1010.07 1011.00 1012.16 1012.85 1013.53 1014.29 1015.26 1016.07 1016.85 1017.49 1017.88 1018.28 1018.67 1019.23 1019.59 1019.49 1019.32 1019.35 1019.31 1018.94 1018.51 1018.21 1017.87 1017.74 1017.41 1017.25 1017.26 1017.18
1008.61 1008.91 1009.34 1009.97 1008.96 1009.16 1009.99 1009.85 1009.44 1009.26 1008.82 1008.53 1008.99 1007.40 1007.82 1008.90 1009.94 1011.28 1012.46 1013.60 1014.54 1014.91 1015.72 1016.54 1017.55 1018.18 1018.72 1018.93 1019.19 1019.58 1019.74 1019.72 1019.73 1019.76 1019.59 1019.19 1018.98 1018.67 1018.13 1017.70 1017.45 1017.25 1017.10 1017.26
1008.74 1009.17 1009.13 1009.11 1008.70 1008.60 1008.55 1009.28 1009.23 1008.91 1008.56 1009.19 1009.37 1007.55 1008.41 1009.30 1010.63 1011.68 1012.97 1013.84 1014.86 1015.40 1016.38 1016.88 1017.87 1018.47 1018.97 1019.15 1019.42 1019.62 1019.74 1019.73 1019.84 1019.79 1019.75 1019.50 1019.08 1018.85 1018.53 1017.97 1017.66 1017.49 1016.94 1016.87
1008.23 1007.99 1008.61 1008.03 1007.49 1007.46 1007.75 1008.23 1008.77 1009.00 1008.64 1008.99 1008.76 1009.02 1009.86 1010.33 1011.39 1012.37 1013.68 1014.51 1015.35 1015.84 1016.80 1017.54 1018.25 1018.72 1019.01 1019.16 1019.38 1019.50 1019.52 1019.62 1019.81 1019.89 1019.76 1019.43 1019.02 1018.77 1018.52 1018.12 1017.84 1017.22 1016.66 1016.40
Thickness
5797 5772 5756 5778 5781 5784 5779 5771 5765 5789 5799 5787 5774 5789 5798 5812 5804 5783 5775 5766 5771 5775 5783 5786 5775 5772 5762 5757 5752 5749 5741 5735 5732 5725 5720 5715 5710 5708 5704 5699 5695 5690 5686 5680
5780 5763 5785 5796 5791 5783 5782 5771 5773 5792 5809 5789 5788 5789 5810 5799 5791 5784 5775 5766 5759 5741 5722 5756 5767 5764 5755 5747 5744 5740 5736 5730 5727 5724 5720 5716 5711 5705 5701 5695 5691 5685 5682 5676
5770 5789 5801 5798 5790 5783 5781 5777 5779 5791 5810 5816 5800 5782 5787 5786 5791 5783 5776 5774 5769 5764 5743 5739 5753 5750 5741 5735 5736 5731 5729 5725 5724 5721 5714 5709 5706 5700 5693 5688 5686 5681 5677 5671
5790 5819 5799 5792 5786 5796 5772 5812 5806 5797 5782 5751 5806 5744 5779 5785 5781 5777 5771 5766 5772 5770 5763 5741 5749 5740 5737 5731 5732 5722 5722 5721 5717 5716 5708 5701 5696 5692 5690 5686 5683 5678 5673 5666
5785 5797 5797 5785 5798 5817 5794 5820 5802 5797 5779 5770 5777 5742 5765 5778 5762 5762 5770 5752 5747 5758 5768 5746 5738 5732 5732 5729 5724 5713 5716 5715 5710 5708 5701 5695 5693 5691 5686 5682 5675 5673 5668 5662
5799 5827 5819 5814 5822 5821 5820 5804 5793 5789 5770 5726 5762 5743 5723 5733 5742 5742 5759 5750 5731 5732 5750 5747 5727 5724 5723 5719 5712 5705 5709 5710 5704 5700 5692 5686 5682 5679 5674 5668 5664 5663 5659 5655
5790 5798 5818 5822 5801 5809 5792 5770 5721 5716 5714 5713 5767 5739 5691 5726 5737 5737 5737 5736 5744 5726 5724 5717 5710 5725 5716 5703 5701 5696 5700 5701 5700 5692 5684 5678 5673 5670 5663 5659 5656 5652 5650 5646
5758 5750 5796 5807 5791 5776 5778 5763 5721 5700 5700 5715 5757 5714 5720 5733 5743 5735 5729 5725 5719 5697 5700 5708 5716 5718 5712 5699 5694 5694 5699 5696 5690 5690 5682 5676 5668 5663 5657 5653 5649 5645 5640 5637
5750 5761 5801 5801 5791 5786 5779 5756 5776 5738 5744 5714 5728 5703 5722 5729 5729 5724 5722 5709 5710 5697 5686 5690 5719 5722 5710 5697 5695 5695 5699 5693 5687 5684 5683 5674 5666 5661 5655 5651 5647 5642 5639 5636
5769 5744 5789 5797 5803 5803 5782 5788 5738 5731 5694 5687 5712 5712 5689 5713 5715 5712 5710 5697 5688 5699 5703 5679 5701 5715 5712 5701 5695 5697 5695 5688 5689 5680 5679 5673 5665 5658 5653 5646 5640 5637 5634 5632
5771 5756 5754 5775 5767 5760 5767 5754 5754 5732 5716 5685 5675 5683 5707 5704 5705 5703 5691 5693 5687 5697 5699 5688 5685 5705 5710 5703 5693 5693 5689 5687 5684 5678 5676 5671 5662 5654 5650 5645 5641 5635 5631 5627
5770 5753 5728 5745 5781 5786 5777 5766 5748 5702 5703 5702 5690 5674 5704 5708 5707 5695 5683 5682 5682 5684 5695 5684 5675 5684 5691 5690 5692 5690 5684 5684 5687 5676 5672 5664 5656 5649 5644 5639 5635 5630 5626 5622
5763 5732 5702 5722 5754 5769 5761 5765 5761 5740 5724 5707 5678 5675 5700 5704 5694 5691 5683 5663 5667 5671 5671 5676 5676 5674 5685 5685 5686 5684 5681 5682 5681 5669 5664 5656 5652 5643 5640 5635 5630 5625 5622 5618
5763 5739 5719 5697 5720 5742 5738 5752 5752 5733 5699 5698 5696 5690 5689 5688 5680 5680 5673 5663 5660 5660 5666 5670 5672 5676 5679 5680 5684 5681 5684 5683 5673 5665 5657 5651 5648 5641 5636 5634 5628 5623 5621 5617
5753 5725 5734 5733 5744 5748 5746 5747 5743 5731 5719 5695 5697 5683 5680 5680 5679 5679 5672 5666 5662 5660 5662 5662 5661 5660 5667 5667 5666 5677 5676 5670 5664 5658 5651 5647 5642 5641 5635 5630 5627 5624 5621 5618
5750 5729 5736 5721 5738 5744 5741 5752 5743 5738 5722 5705 5697 5678 5686 5685 5682 5676 5671 5667 5663 5661 5658 5659 5658 5658 5655 5655 5666 5666 5666 5662 5660 5654 5649 5647 5644 5637 5634 5630 5626 5622 5619 5617
5740 5729 5718 5698 5725 5727 5711 5742 5738 5728 5717 5711 5687 5682 5682 5674 5672 5669 5670 5668 5662 5659 5661 5660 5659 5659 5657 5656 5656 5656 5661 5660 5654 5650 5645 5642 5638 5633 5628 5624 5619 5615 5613 5611
5730 5718 5711 5692 5700 5674 5726 5745 5738 5719 5708 5701 5690 5684 5679 5671 5672 5673 5672 5667 5662 5663 5661 5659 5657 5652 5652 5653 5651 5650 5648 5644 5642 5634 5631 5629 5626 5619 5614 5611 5609 5607 5604 5602
5737 5715 5693 5680 5685 5710 5719 5729 5721 5709 5697 5709 5691 5683 5678 5673 5668 5664 5670 5668 5669 5670 5668 5655 5650 5647 5647 5645 5642 5639 5635 5629 5626 5619 5618 5617 5614 5606 5604 5601 5597 5596 5594 5592
5730 5721 5692 5689 5676 5674 5716 5730 5738 5726 5681 5709 5701 5689 5682 5675 5648 5662 5673 5671 5664 5660 5655 5647 5641 5639 5636 5633 5632 5628 5621 5614 5610 5607 5605 5602 5598 5594 5592 5589 5586 5585 5584 5584
5695 5692 5685 5681 5672 5699 5704 5726 5731 5681 5675 5706 5701 5694 5685 5673 5675 5676 5674 5664 5659 5650 5643 5637 5633 5626 5623 5624 5619 5610 5602 5597 5596 5597 5594 5589 5586 5583 5578 5576 5574 5573 5572 5570
5697 5687 5684 5687 5676 5663 5693 5682 5666 5697 5712 5709 5703 5699 5692 5688 5680 5674 5666 5655 5649 5643 5636 5631 5623 5616 5610 5608 5604 5595 5589 5586 5585 5583 5578 5573 5571 5570 5567 5563 5561 5559 5556 5552
5685 5691 5682 5681 5677 5683 5686 5680 5677 5683 5693 5694 5694 5699 5693 5685 5677 5672 5656 5648 5643 5637 5630 5621 5613 5605 5599 5594 5590 5581 5576 5572 5568 5563 5559 5558 5558 5555 5553 5550 5547 5543 5538 5532
5685 5691 5676 5674 5688 5690 5683 5685 5686 5680 5679 5678 5668 5695 5688 5674 5669 5657 5646 5635 5627 5623 5615 5609 5599 5591 5584 5580 5575 5567 5562 5558 5553 5548 5545 5544 5541 5539 5537 5534 5530 5527 5522 5514
5682 5678 5674 5676 5687 5691 5694 5684 5683 5678 5680 5667 5670 5689 5679 5670 5656 5649 5638 5630 5620 5612 5602 5595 5584 5577 5570 5566 5560 5555 5550 5545 5540 5535 5530 5527 5525 5521 5517 5514 5510 5508 5504 5500
5683 5679 5663 5667 5691 5690 5691 5685 5679 5672 5672 5670 5671 5669 5662 5657 5646 5639 5626 5617 5606 5598 5588 5578 5567 5559 5555 5550 5544 5541 5535 5530 5524 5518 5512 5509 5507 5502 5498 5494 5490 5488 5486 5482